Weather History for Gallup, NM

Change the Weather History Date:

Monday, August 18, 2014

  Actual Average Record
Temperature  
Mean Temperature 71 °F -  
Max Temperature 87 °F 82 °F 93 °F (1986)
Min Temperature 55 °F 50 °F 42 °F (1987)
Cooling Degree Days 6    
Growing Degree Days 21 (Base 50)    
Moisture  
Dew Point 43 °F    
Average Humidity 37    
Maximum Humidity 60    
Minimum Humidity 20    
Precipitation  
Precipitation 0.00 in - - ()
Sea Level Pressure  
Sea Level Pressure 29.79 in    
Wind  
Wind Speed 6 mph (NNW)    
Max Wind Speed 24 mph    
Max Gust Speed 34 mph    
Visibility 10 miles    
Events Rain , Thunderstorm    
Averages and records for this station are not official NWS values.
T = Trace of Precipitation, MM = Missing Value Source: NWS Daily Summary

Daily Weather History Graph

Daily Weather History Graph

Search for Another Location

Airport:

Trip Planner

Search our weather history database for the weather conditions in past years. The results will help you decide how hot, cold, wet, or windy it might be!

Date:

Astronomy

Aug. 18, 2014 Rise Set
Actual Time 6:36 AM MDT 8:00 PM MDT
Civil Twilight 6:09 AM MDT 8:27 PM MDT
Nautical Twilight 5:37 AM MDT 8:59 PM MDT
Astronomical Twilight 5:04 AM MDT 9:32 PM MDT
Moon 12:48 AM MDT (8/18) 3:03 PM MDT (8/18)
Length of Visible Light 14h 17m
Length of Day
13h 23m
Last Quarter, 38% of the Moon is Illuminated
Aug 18
Last Quarter
Aug 25
New
Sep 2
First Quarter
Sep 8
Full
Sep 15
Last Quarter

Hourly Weather History & Observations

Time (MDT) Temp. Dew Point Humidity Pressure Visibility Wind Dir Wind Speed Gust Speed Precip Events Conditions
1:53 AM 66.9 °F 43.0 °F 42% 29.63 in 10.0 mi Calm Calm - N/A   Clear
2:53 AM 62.1 °F 42.1 °F 48% 29.65 in 10.0 mi Calm Calm - N/A   Clear
3:53 AM 57.9 °F 39.9 °F 51% 29.69 in 10.0 mi ENE 3.5 mph - N/A   Clear
4:53 AM 57.9 °F 42.1 °F 56% 29.67 in 10.0 mi Calm Calm - N/A   Clear
5:53 AM 55.9 °F 42.1 °F 60% 29.70 in 10.0 mi NE 3.5 mph - N/A   Clear
6:53 AM 55.0 °F 41.0 °F 59% 29.74 in 10.0 mi NE 3.5 mph - N/A   Clear
7:53 AM 62.1 °F 44.1 °F 52% 29.72 in 10.0 mi Calm Calm - N/A   Clear
8:53 AM 69.1 °F 45.0 °F 42% 29.70 in 10.0 mi Calm Calm - N/A   Clear
9:53 AM 75.9 °F 46.0 °F 35% 29.68 in 10.0 mi West 4.6 mph - N/A   Clear
10:53 AM 81.0 °F 46.0 °F 29% 29.65 in 10.0 mi WSW 9.2 mph - N/A   Clear
11:53 AM 84.0 °F 42.1 °F 23% 29.62 in 10.0 mi Variable 5.8 mph - N/A   Clear
12:53 PM 87.1 °F 42.1 °F 21% 29.57 in 10.0 mi South 9.2 mph - N/A   Clear
1:35 PM 84.0 °F 41.0 °F 22% 30.17 in 10.0 mi North - - N/A Thunderstorm Thunderstorm
1:53 PM 82.0 °F 37.0 °F 20% 29.60 in 10.0 mi SE 19.6 mph - N/A Thunderstorm Thunderstorm
2:11 PM 73.9 °F 48.0 °F 40% 30.16 in 10.0 mi SSE 12.7 mph 28.8 mph 0.00 in Rain , Thunderstorm Light Thunderstorms and Rain
2:53 PM 78.1 °F 43.0 °F 29% 29.70 in 10.0 mi NNE 3.5 mph - 0.00 in   Mostly Cloudy
3:03 PM 80.1 °F 39.9 °F 24% 30.18 in 10.0 mi NNE 11.5 mph - N/A Thunderstorm Mostly Cloudy
3:16 PM 79.0 °F 39.9 °F 25% 30.18 in 10.0 mi NNE 16.1 mph - N/A Thunderstorm Thunderstorm
3:33 PM 82.9 °F 39.0 °F 21% 30.16 in 10.0 mi North 13.8 mph - N/A Thunderstorm Mostly Cloudy
3:42 PM 82.0 °F 39.0 °F 22% 30.15 in 10.0 mi North 15.0 mph - N/A   Scattered Clouds
3:53 PM 81.0 °F 37.9 °F 21% 29.66 in 10.0 mi NW 16.1 mph 26.5 mph N/A   Scattered Clouds
4:53 PM 82.0 °F 37.0 °F 20% 29.63 in 10.0 mi North 4.6 mph - N/A   Clear
5:18 PM 81.0 °F 41.0 °F 24% 30.14 in 10.0 mi South 15.0 mph 19.6 mph N/A Thunderstorm Mostly Cloudy
5:53 PM 72.0 °F 46.9 °F 41% 29.76 in 10.0 mi SW 24.2 mph 31.1 mph 0.00 in Rain Light Rain
6:53 PM 64.9 °F 50.0 °F 58% 29.79 in 10.0 mi West 18.4 mph - 0.00 in   Clear
7:53 PM 68.0 °F 46.0 °F 45% 29.73 in 10.0 mi West 11.5 mph 23.0 mph N/A   Partly Cloudy
8:53 PM 68.0 °F 46.0 °F 45% 29.68 in 10.0 mi ESE 6.9 mph - N/A   Overcast
10:53 PM 66.9 °F 48.9 °F 52% 29.65 in 10.0 mi SW 21.9 mph 34.5 mph N/A   Clear
11:53 PM 64.9 °F 50.0 °F 58% 29.63 in 10.0 mi WSW 10.4 mph - N/A   Clear